TimeEDT,TemperatureF,Dew PointF,Humidity,Sea Level PressureIn,VisibilityMPH,Wind Direction,Wind SpeedMPH,Gust SpeedMPH,PrecipitationIn,Events,Conditions,WindDirDegrees,DateUTC
12:53 AM,71.1,64.9,81,29.92,10.0,NNW,6.9,-,N/A,,Overcast,340,2013-08-08 04:53:00
1:53 AM,68.0,63.0,84,29.93,10.0,NNW,4.6,-,N/A,,Scattered Clouds,340,2013-08-08 05:53:00
2:53 AM,66.9,63.0,87,29.95,10.0,North,8.1,-,N/A,,Scattered Clouds,350,2013-08-08 06:53:00
3:53 AM,66.0,63.0,90,29.95,10.0,North,5.8,-,N/A,,Scattered Clouds,350,2013-08-08 07:53:00
4:10 AM,66.2,62.6,88,29.96,10.0,NNW,5.8,-,N/A,,Mostly Cloudy,340,2013-08-08 08:10:00
4:26 AM,66.2,62.6,88,29.97,10.0,North,4.6,-,N/A,,Overcast,350,2013-08-08 08:26:00
4:49 AM,66.2,62.6,88,29.97,10.0,NNW,3.5,-,N/A,,Overcast,330,2013-08-08 08:49:00
4:53 AM,66.0,63.0,90,29.96,10.0,North,3.5,-,N/A,,Overcast,360,2013-08-08 08:53:00
5:53 AM,66.0,61.0,84,29.97,10.0,North,8.1,-,N/A,,Overcast,360,2013-08-08 09:53:00
6:46 AM,64.4,60.8,88,30.00,10.0,North,9.2,-,N/A,,Overcast,10,2013-08-08 10:46:00
6:53 AM,64.9,60.1,84,29.99,10.0,North,8.1,-,N/A,,Mostly Cloudy,10,2013-08-08 10:53:00
7:04 AM,64.4,60.8,88,30.01,10.0,NNE,6.9,-,N/A,,Overcast,20,2013-08-08 11:04:00
7:53 AM,64.0,57.9,80,30.00,10.0,NNE,11.5,-,N/A,,Overcast,30,2013-08-08 11:53:00
8:53 AM,66.0,57.9,75,30.02,10.0,NE,8.1,-,N/A,,Overcast,40,2013-08-08 12:53:00
9:53 AM,66.0,57.0,73,30.02,10.0,ENE,6.9,-,N/A,,Overcast,60,2013-08-08 13:53:00
10:29 AM,68.0,55.4,64,30.03,10.0,NNE,8.1,-,N/A,,Partly Cloudy,30,2013-08-08 14:29:00
10:53 AM,69.1,57.0,65,30.03,10.0,NE,5.8,-,N/A,,Partly Cloudy,40,2013-08-08 14:53:00
11:53 AM,71.1,55.9,59,30.03,10.0,NNE,6.9,-,N/A,,Clear,20,2013-08-08 15:53:00
12:53 PM,73.0,55.9,55,30.02,10.0,Variable,3.5,-,N/A,,Clear,0,2013-08-08 16:53:00
1:53 PM,73.9,55.0,52,30.02,10.0,Calm,Calm,-,N/A,,Clear,0,2013-08-08 17:53:00
2:53 PM,77.0,55.9,48,30.00,10.0,NNW,4.6,-,N/A,,Clear,340,2013-08-08 18:53:00
3:53 PM,77.0,54.0,45,29.99,10.0,NNE,9.2,-,N/A,,Clear,20,2013-08-08 19:53:00
4:53 PM,77.0,55.0,47,29.99,10.0,NNW,10.4,-,N/A,,Clear,340,2013-08-08 20:53:00
5:53 PM,75.9,55.9,50,29.98,10.0,NNE,6.9,-,N/A,,Clear,30,2013-08-08 21:53:00
6:53 PM,75.0,55.9,51,29.98,10.0,North,8.1,-,N/A,,Clear,10,2013-08-08 22:53:00
7:53 PM,72.0,53.1,51,29.99,10.0,NNE,8.1,-,N/A,,Clear,30,2013-08-08 23:53:00
8:53 PM,69.1,52.0,54,30.00,10.0,NNE,5.8,-,N/A,,Clear,20,2013-08-09 00:53:00
9:53 PM,66.0,52.0,60,30.00,10.0,NE,5.8,-,N/A,,Clear,40,2013-08-09 01:53:00
10:53 PM,66.9,54.0,63,30.00,10.0,ENE,6.9,-,N/A,,Clear,60,2013-08-09 02:53:00
11:53 PM,63.0,55.9,78,30.00,10.0,ESE,3.5,-,N/A,,Clear,110,2013-08-09 03:53:00